User: anonymous   Login
Location: Unspecified
(0.0000°N, 0.0000°E)
Time: 20:13:39
(UTC+00:00)
Language:

DIAMOND RED - Orbit

View from above orbital plane
View from above orbital plane
View from above satellite
View from above satellite

Ground track
Ground track

The orbit data is extracted from the following two-line orbital elements,

1 42783U 17036U   19340.87810809 +.00000724 +00000-0 +34207-4 0  9992
2 42783 097.3300 034.5030 0011812 357.5693 002.5484 15.22479622136298
Epoch (UTC): 06 December 2019 21:04:28
Eccentricity: 0.0011812
inclination: 97.3300°
perigee height: 490 km
apogee height: 506 km
right ascension of ascending node: 34.5030°
argument of perigee: 357.5693°
revolutions per day: 15.22479622
mean anomaly at epoch: 2.5484°
orbit number at epoch: 13629

The dashed part of the orbit path shows where the satellite is in the earth's shadow,  

DLR